This is the latest recevied weather packets stored in our database for station/object HB0PJ-13. If no packets are shown the sender has not sent any weather packets the latest 10 day(s).
| Time | Temp. | Humidity | Pressure | Rain* | Wind** | Luminosity | Snow |
|---|---|---|---|---|---|---|---|
| 1777895943 | 23.33° C | 23% | 955.5 hPa | - | - | 38 W/m² | - |
| 1777895823 | 23.33° C | 23% | 955.4 hPa | - | - | 51 W/m² | - |
| 1777895703 | 23.33° C | 22% | 955.5 hPa | - | - | 55 W/m² | - |
| 1777895583 | 23.33° C | 24% | 955.6 hPa | - | - | 37 W/m² | - |
| 1777895463 | 23.33° C | 24% | 955.5 hPa | - | - | 36 W/m² | - |
| 1777895343 | 23.33° C | 24% | 955.6 hPa | - | - | 37 W/m² | - |
| 1777895223 | 23.33° C | 23% | 955.6 hPa | - | - | 38 W/m² | - |
| 1777895103 | 23.33° C | 24% | 955.7 hPa | - | - | 36 W/m² | - |
| 1777894983 | 23.33° C | 25% | 955.7 hPa | - | - | 36 W/m² | - |
| 1777894863 | 23.33° C | 24% | 955.7 hPa | - | - | 38 W/m² | - |
| 1777894743 | 22.78° C | 25% | 955.8 hPa | - | - | 33 W/m² | - |
| 1777894623 | 22.78° C | 26% | 955.8 hPa | - | - | 36 W/m² | - |
| 1777894503 | 22.78° C | 26% | 955.7 hPa | - | - | 34 W/m² | - |
| 1777894383 | 22.78° C | 26% | 955.9 hPa | - | - | 37 W/m² | - |
| 1777894263 | 22.78° C | 25% | 956 hPa | - | - | 38 W/m² | - |
| 1777894023 | 22.78° C | 31% | 956 hPa | - | - | 43 W/m² | - |
| 1777893903 | 22.78° C | 32% | 955.9 hPa | - | - | 50 W/m² | - |
| 1777893783 | 22.78° C | 33% | 956.4 hPa | - | - | 50 W/m² | - |
| 1777893663 | 22.22° C | 34% | 956.3 hPa | - | - | 48 W/m² | - |
| 1777893543 | 22.22° C | 34% | 956.1 hPa | - | - | 48 W/m² | - |
| 1777893423 | 22.22° C | 35% | 956.4 hPa | - | - | 49 W/m² | - |
| 1777893183 | 22.22° C | 35% | 956.4 hPa | - | - | 49 W/m² | - |
| 1777893063 | 22.22° C | 35% | 956.5 hPa | - | - | 53 W/m² | - |
| 1777892943 | 21.67° C | 36% | 956.4 hPa | - | - | 50 W/m² | - |
| 1777892823 | 21.67° C | 36% | 956.3 hPa | - | - | 42 W/m² | - |
* Rain since midnight (hover to see other rain measurements)
** Current wind speed in m/s (hover to see current wind gust speed)